Terminal Aerodrome Forecast
Issued by NWS

Home | Current Version | Previous Version | Text Only | Print | Product List | Glossary On
Versions: 1 2 3 4 5 6 7 8 9 10 11 12 13 14 15 16 17 18 19 20 21 22 23 24 25 26 27 28 29 30 31 32 33 34 35 36 37 38 39 40 41 42 43 44 45 46 47 48 49 50
000
FTAK31 PANC 301121
TAFASD
TAF
PASD 301121Z 3012/3112 03018G28KT 2SM -SN BKN009 OVC012
      WS015/04050KT
      TEMPO 3012/3016 3SM -SN SCT009 BKN012
     FM301600 01018G28KT 3SM -RASN SCT010 BKN020 OVC030
     FM302100 01015G23KT 3SM -RA BKN015 OVC030
      AMD LTD TO CLD VIS AND WIND=

USA.gov is the U.S. government's official web portal to all federal, state and local government web resources and services.